Location: Poughquag
(41.6090°N, 73.6820°W)
Time: 03:59:03
(UTC-05:00)

Courier 1B Rocket - All Passes

Search period start: 05 December 2023 00:00
Search period end: 15 December 2023 00:00
Orbit: 920 x 1201 km, 28.2° (Epoch: 04 December)

Date Brightness Start Highest point End Pass type
(mag) Time Alt. Az. Time Alt. Az. Time Alt. Az.
05 Dec - 10:53:59 10° S 10:57:01 13° SSE 11:00:00 10° SE daylight
05 Dec - 12:44:35 10° SW 12:49:28 22° S 12:54:13 10° SE daylight
05 Dec - 14:37:13 10° WSW 14:41:58 22° S 14:46:39 10° SE daylight
05 Dec - 16:31:36 10° SW 16:34:19 13° SSW 16:37:03 10° S daylight
06 Dec - 09:55:47 10° SSE 09:56:12 10° SSE 09:56:38 10° SSE daylight
06 Dec - 11:43:55 10° SW 11:48:38 20° S 11:53:12 10° ESE daylight
06 Dec - 13:36:09 10° SW 13:41:10 24° S 13:46:02 10° SE daylight
06 Dec - 15:29:46 10° SW 15:33:34 17° SSW 15:37:22 10° SSE daylight
07 Dec - 10:43:26 10° SSW 10:47:48 18° SSE 10:52:00 10° SE daylight
07 Dec - 12:35:09 10° SW 12:40:20 24° S 12:45:19 10° SE daylight
07 Dec - 14:28:20 10° WSW 14:32:49 20° SSW 14:37:12 10° SSE daylight
08 Dec - 09:43:18 10° SSW 09:46:56 15° SSE 09:50:28 10° SE daylight
08 Dec - 11:34:15 10° SW 11:39:29 24° S 11:44:28 10° ESE daylight
08 Dec - 13:27:03 10° WSW 13:32:01 23° S 13:36:49 10° SE daylight
08 Dec - 15:21:38 10° SW 15:24:22 13° SSW 15:27:03 10° S daylight
09 Dec - 08:44:00 10° S 08:46:04 11° SSE 08:48:07 10° SE daylight
09 Dec - 10:33:27 10° SW 10:38:35 22° S 10:43:30 10° ESE daylight
09 Dec - 12:25:52 10° SW 12:31:10 25° S 12:36:15 10° SE daylight
09 Dec - 14:19:40 10° SW 14:23:37 17° SSW 14:27:28 10° SSE daylight
10 Dec - 09:32:51 10° SSW 09:37:42 19° SSE 09:42:19 10° ESE daylight
10 Dec - 11:24:46 10° SW 11:30:18 26° S 11:35:33 10° SE daylight
10 Dec - 13:18:06 10° WSW 13:22:50 21° SSW 13:27:24 10° SSE daylight
11 Dec - 08:32:34 10° SSW 08:36:46 16° SSE 08:40:50 10° SE daylight
11 Dec - 10:23:46 10° SW 10:29:23 25° S 10:34:43 10° ESE daylight
11 Dec - 12:16:43 10° WSW 12:22:00 24° S 12:27:03 10° SE daylight
11 Dec - 14:11:26 10° SW 14:14:22 13° SSW 14:17:15 10° S daylight
12 Dec - 07:32:57 10° S 07:35:51 13° SSE 07:38:42 10° SE daylight
12 Dec - 09:22:53 10° SW 09:28:26 23° S 09:33:44 10° ESE daylight
12 Dec - 11:15:26 10° WSW 11:21:07 26° S 11:26:29 10° SE daylight
12 Dec - 13:09:20 10° WSW 13:13:36 18° SSW 13:17:42 10° SSE daylight
13 Dec - 08:22:13 10° SSW 08:27:29 21° SSE 08:32:32 10° ESE daylight
13 Dec - 10:14:16 10° SW 10:20:11 27° S 10:25:47 10° SE daylight
13 Dec - 12:07:42 10° WSW 12:12:47 22° SSW 12:17:38 10° SSE daylight
14 Dec - 07:21:52 10° SSW 07:26:31 17° SSE 07:31:02 10° ESE daylight
14 Dec - 09:13:12 10° SW 09:19:12 26° S 09:24:54 10° ESE daylight
14 Dec - 11:06:14 10° WSW 11:11:54 25° S 11:17:16 10° SE daylight
14 Dec - 13:01:00 10° SW 13:04:19 14° SSW 13:07:33 10° S daylight
